This is the latest recevied weather packets stored in our database for station/object KD8TSA. If no packets are shown the sender has not sent any weather packets the latest 10 day(s).
| Time | Temp. | Humidity | Pressure | Rain* | Wind** | Luminosity | Snow |
|---|---|---|---|---|---|---|---|
| 1778254411 | 18.33° C | 58% | 1013.5 hPa | 0 mm | - | 661 W/m² | - |
| 1778254107 | 17.78° C | 57% | 1013.4 hPa | 0 mm | - | 794 W/m² | - |
| 1778253804 | 17.78° C | 57% | 1013.7 hPa | 0 mm | - | 782 W/m² | - |
| 1778253500 | 17.78° C | 58% | 1013.7 hPa | 0 mm | - | 786 W/m² | - |
| 1778253198 | 18.33° C | 59% | 1013.8 hPa | 0 mm | - | 778 W/m² | - |
| 1778252893 | 17.78° C | 59% | 1013.6 hPa | 0 mm | - | 799 W/m² | - |
| 1778252590 | 17.22° C | 61% | 1013.8 hPa | 0 mm | - | 794 W/m² | - |
| 1778252287 | 17.22° C | 58% | 1014 hPa | 0 mm | - | 789 W/m² | - |
| 1778251983 | 17.22° C | 58% | 1013.8 hPa | 0 mm | - | 738 W/m² | - |
| 1778251680 | 17.22° C | 61% | 1014 hPa | 0 mm | - | 747 W/m² | - |
| 1778251378 | 16.67° C | 59% | 1013.8 hPa | 0 mm | - | 720 W/m² | - |
| 1778251075 | 16.11° C | 62% | 1014 hPa | 0 mm | - | 588 W/m² | - |
| 1778250772 | 15.56° C | 61% | 1014 hPa | 0 mm | - | 379 W/m² | - |
| 1778250468 | 15° C | 63% | 1013.7 hPa | 0 mm | - | 658 W/m² | - |
| 1778250165 | 14.44° C | 66% | 1013.9 hPa | 0 mm | - | 646 W/m² | - |
| 1778249862 | 13.89° C | 64% | 1013.9 hPa | 0 mm | - | 191 W/m² | - |
| 1778249559 | 14.44° C | 62% | 1013.9 hPa | 0 mm | - | 274 W/m² | - |
| 1778249256 | 13.33° C | 64% | 1013.8 hPa | 0 mm | - | 360 W/m² | - |
| 1778248953 | 13.89° C | 64% | 1013.8 hPa | 0 mm | - | 252 W/m² | - |
| 1778248649 | 13.89° C | 63% | 1014.1 hPa | 0 mm | - | 236 W/m² | - |
| 1778248041 | 13.89° C | 63% | 1014.1 hPa | 0 mm | - | 273 W/m² | - |
| 1778247739 | 13.89° C | 62% | 1014 hPa | 0 mm | - | 289 W/m² | - |
| 1778247435 | 15° C | 62% | 1014.1 hPa | 0 mm | - | 262 W/m² | - |
| 1778247133 | 14.44° C | 64% | 1014 hPa | 0 mm | - | 275 W/m² | - |
| 1778246831 | 13.89° C | 64% | 1013.9 hPa | 0 mm | - | 461 W/m² | - |
* Rain latest hour (hover to see other rain measurements)
** Current wind speed in m/s (hover to see current wind gust speed)